TimeCDT,TemperatureF,Dew PointF,Humidity,Sea Level PressureIn,VisibilityMPH,Wind Direction,Wind SpeedMPH,Gust SpeedMPH,PrecipitationIn,Events,Conditions,WindDirDegrees,DateUTC
12:53 AM,73.9,71.1,91,29.90,8.0,North,3.5,-,N/A,,Overcast,10,2013-09-14 05:53:00
1:53 AM,73.9,70.0,87,29.89,9.0,North,3.5,-,N/A,,Scattered Clouds,10,2013-09-14 06:53:00
2:53 AM,73.9,68.0,82,29.90,10.0,NNE,8.1,-,N/A,,Overcast,20,2013-09-14 07:53:00
3:53 AM,73.0,66.0,79,29.89,10.0,NE,4.6,-,N/A,,Overcast,40,2013-09-14 08:53:00
4:53 AM,72.0,64.0,76,29.90,10.0,NE,4.6,-,N/A,,Clear,40,2013-09-14 09:53:00
5:53 AM,70.0,63.0,78,29.91,10.0,NE,4.6,-,N/A,,Clear,40,2013-09-14 10:53:00
6:53 AM,69.1,62.1,78,29.93,10.0,Variable,4.6,-,N/A,,Clear,0,2013-09-14 11:53:00
7:53 AM,69.1,60.1,73,29.94,10.0,NE,8.1,-,N/A,,Clear,50,2013-09-14 12:53:00
8:53 AM,72.0,60.1,66,29.96,10.0,ENE,4.6,-,N/A,,Clear,70,2013-09-14 13:53:00
9:53 AM,75.9,60.1,58,29.97,10.0,Variable,4.6,-,N/A,,Clear,0,2013-09-14 14:53:00
10:53 AM,79.0,61.0,54,29.98,10.0,Variable,4.6,-,N/A,,Mostly Cloudy,0,2013-09-14 15:53:00
11:53 AM,82.0,61.0,49,29.97,10.0,East,6.9,-,N/A,,Partly Cloudy,100,2013-09-14 16:53:00
12:53 PM,86.0,62.1,44,29.96,10.0,Variable,6.9,-,N/A,,Overcast,0,2013-09-14 17:53:00
1:53 PM,87.1,57.9,37,29.94,10.0,NNE,3.5,-,N/A,,Mostly Cloudy,20,2013-09-14 18:53:00
2:53 PM,89.1,59.0,36,29.93,10.0,East,6.9,-,N/A,,Scattered Clouds,100,2013-09-14 19:53:00
3:53 PM,89.1,60.1,38,29.91,10.0,Variable,3.5,-,N/A,,Clear,0,2013-09-14 20:53:00
4:53 PM,87.1,60.1,40,29.91,10.0,SE,8.1,-,N/A,,Clear,140,2013-09-14 21:53:00
5:53 PM,86.0,61.0,43,29.91,10.0,East,4.6,-,N/A,,Clear,100,2013-09-14 22:53:00
6:53 PM,82.9,62.1,49,29.93,10.0,Calm,Calm,-,N/A,,Clear,0,2013-09-14 23:53:00
7:53 PM,78.1,63.0,60,29.94,10.0,Calm,Calm,-,N/A,,Clear,0,2013-09-15 00:53:00
8:53 PM,75.0,64.0,69,29.96,10.0,Calm,Calm,-,N/A,,Clear,0,2013-09-15 01:53:00
9:53 PM,73.9,64.0,71,29.98,10.0,NE,3.5,-,N/A,,Clear,40,2013-09-15 02:53:00
10:53 PM,73.0,64.0,73,29.99,10.0,ENE,3.5,-,N/A,,Clear,60,2013-09-15 03:53:00
11:53 PM,70.0,64.0,81,29.99,10.0,Calm,Calm,-,N/A,,Clear,0,2013-09-15 04:53:00